Weather History for Thomasville, GA

Change the Weather History Date:

Thursday, January 30, 2014

  Actual Average (KVLD) Record (KVLD)
Temperature  
Mean Temperature 36 °F 51 °F  
Max Temperature 44 °F 63 °F 62 °F (2015)
Min Temperature 28 °F 39 °F 32 °F (2014)
Degree Days  
Heating Degree Days 29 14  
Month to date heating degree days 445  
Since 1 July heating degree days 1058  
Moisture  
Dew Point 29 °F    
Average Humidity 79    
Maximum Humidity 100    
Minimum Humidity 49    
Precipitation  
Precipitation 0.00 in 0.13 in 0.00 in (2015)
Month to date precipitation 4.44  
Year to date precipitation 4.44  
Sea Level Pressure  
Sea Level Pressure 30.26 in    
Wind  
Wind Speed 6 mph (NE)    
Max Wind Speed 9 mph    
Max Gust Speed -    
Visibility 10 miles    
Events      
T = Trace of Precipitation, MM = Missing Value Source: NWS Daily Summary

Daily Weather History Graph

Daily Weather History Graph

Search for Another Location

Airport:

Trip Planner

Search our weather history database for the weather conditions in past years. The results will help you decide how hot, cold, wet, or windy it might be!

Date:

Astronomy

Jan. 30, 2014 Rise Set
Actual Time 7:28 AM EST 6:09 PM EST
Civil Twilight 7:03 AM EST 6:34 PM EST
Nautical Twilight 6:34 AM EST 7:03 PM EST
Astronomical Twilight 6:05 AM EST 7:32 PM EST
Moon 6:56 AM EST (1/30) 6:16 PM EST (1/30)
Length of Visible Light 11h 31m
Length of Day
10h 41m
Waning Crescent, 0% of the Moon is Illuminated
Jan 30
Waning Crescent
Jan 30
New
Feb 6
First Quarter
Feb 14
Full
Feb 22
Last Quarter

Hourly Weather History & Observations

Time (EST) Temp. Windchill Dew Point Humidity Pressure Visibility Wind Dir Wind Speed Gust Speed Precip Events Conditions
12:15 AM 32.0 °F 24.8 °F 32.0 °F 100% 30.33 in 7.0 mi NE 8.1 mph - N/A   Overcast
12:35 AM 32.0 °F 26.4 °F 32.0 °F 100% 30.32 in 7.0 mi NNE 5.8 mph - N/A   Overcast
12:55 AM 32.0 °F 27.5 °F 32.0 °F 100% 30.32 in 7.0 mi NNE 4.6 mph - N/A   Overcast
1:15 AM 32.0 °F 27.5 °F 32.0 °F 100% 30.32 in 7.0 mi NNE 4.6 mph - N/A   Overcast
1:35 AM 32.0 °F 27.5 °F 32.0 °F 100% 30.32 in 7.0 mi NE 4.6 mph - N/A   Overcast
1:55 AM 32.0 °F 26.4 °F 32.0 °F 100% 30.32 in 7.0 mi NE 5.8 mph - N/A   Overcast
2:15 AM 32.0 °F 27.5 °F 32.0 °F 100% 30.31 in 7.0 mi NNE 4.6 mph - N/A   Overcast
2:35 AM 32.0 °F 27.5 °F 32.0 °F 100% 30.30 in 7.0 mi NNE 4.6 mph - N/A   Overcast
2:55 AM 32.0 °F 24.8 °F 32.0 °F 100% 30.29 in 10.0 mi NE 8.1 mph - N/A   Overcast
3:15 AM 32.0 °F 25.6 °F 32.0 °F 100% 30.28 in 10.0 mi NE 6.9 mph - N/A   Overcast
3:35 AM 32.0 °F 24.8 °F 32.0 °F 100% 30.28 in 10.0 mi ENE 8.1 mph - N/A   Overcast
3:55 AM 32.0 °F 24.8 °F 30.2 °F 93% 30.27 in 10.0 mi NE 8.1 mph - N/A   Overcast
4:15 AM 32.0 °F 26.4 °F 30.2 °F 93% 30.27 in 10.0 mi NE 5.8 mph - N/A   Overcast
4:35 AM 32.0 °F 24.8 °F 30.2 °F 93% 30.27 in 10.0 mi NE 8.1 mph - N/A   Overcast
4:55 AM 32.0 °F 25.6 °F 30.2 °F 93% 30.27 in 10.0 mi NE 6.9 mph - N/A   Overcast
5:15 AM 30.2 °F 21.9 °F 30.2 °F 100% 30.27 in 10.0 mi NNE 9.2 mph - N/A   Overcast
5:35 AM 30.2 °F 25.4 °F 30.2 °F 100% 30.27 in 10.0 mi NNE 4.6 mph - N/A   Mostly Cloudy
5:55 AM 30.2 °F 23.4 °F 28.4 °F 93% 30.27 in 10.0 mi NNE 6.9 mph - N/A   Scattered Clouds
6:15 AM 30.2 °F 25.4 °F 28.4 °F 93% 30.28 in 10.0 mi NNE 4.6 mph - N/A   Clear
6:35 AM 28.4 °F 23.3 °F 28.4 °F 100% 30.30 in 10.0 mi NE 4.6 mph - N/A   Clear
6:55 AM 28.4 °F 24.6 °F 28.4 °F 100% 30.30 in 10.0 mi NNE 3.5 mph - N/A   Clear
7:15 AM 28.4 °F 23.3 °F 28.4 °F 100% 30.31 in 10.0 mi North 4.6 mph - N/A   Clear
7:35 AM 28.4 °F 23.3 °F 26.6 °F 93% 30.31 in 10.0 mi NNE 4.6 mph - N/A   Clear
7:55 AM 28.4 °F 22.2 °F 26.6 °F 93% 30.32 in 10.0 mi NNE 5.8 mph - N/A   Clear
8:15 AM 28.4 °F 22.2 °F 26.6 °F 93% 30.32 in 10.0 mi NNE 5.8 mph - N/A   Clear
8:35 AM 28.4 °F 20.4 °F 26.6 °F 93% 30.32 in 10.0 mi NNE 8.1 mph - N/A   Clear
8:55 AM 30.2 °F 21.9 °F 26.6 °F 86% 30.32 in 10.0 mi NE 9.2 mph - N/A   Clear
9:15 AM 30.2 °F 23.4 °F 26.6 °F 86% 30.33 in 10.0 mi NE 6.9 mph - N/A   Clear
9:35 AM 30.2 °F 21.9 °F 24.8 °F 80% 30.34 in 10.0 mi NE 9.2 mph - N/A   Clear
9:55 AM 32.0 °F 24.2 °F 23.0 °F 69% 30.33 in 10.0 mi NE 9.2 mph - N/A   Clear
10:15 AM 32.0 °F 24.2 °F 23.0 °F 69% 30.33 in 10.0 mi ENE 9.2 mph - N/A   Clear
10:35 AM 32.0 °F 24.2 °F 23.0 °F 69% 30.33 in 10.0 mi ENE 9.2 mph - N/A   Clear
10:55 AM 33.8 °F 26.4 °F 23.0 °F 65% 30.32 in 10.0 mi NE 9.2 mph - N/A   Clear
11:15 AM 33.8 °F 27.0 °F 23.0 °F 65% 30.32 in 10.0 mi ENE 8.1 mph - N/A   Clear
11:35 AM 35.6 °F 28.6 °F 23.0 °F 60% 30.31 in 10.0 mi East 9.2 mph - N/A   Clear
11:55 AM 37.4 °F 31.4 °F 24.8 °F 60% 30.30 in 10.0 mi East 8.1 mph - N/A   Clear
12:15 PM 39.2 °F 33.0 °F 26.6 °F 61% 30.28 in 10.0 mi ENE 9.2 mph - N/A   Clear
12:35 PM 41.0 °F 36.4 °F 26.6 °F 57% 30.27 in 10.0 mi East 6.9 mph - N/A   Clear
12:55 PM 41.0 °F 35.2 °F 26.6 °F 57% 30.26 in 10.0 mi ENE 9.2 mph - N/A   Clear
1:15 PM 41.0 °F 35.8 °F 26.6 °F 57% 30.25 in 10.0 mi East 8.1 mph - N/A   Clear
1:35 PM 42.8 °F 38.6 °F 26.6 °F 53% 30.24 in 10.0 mi ENE 6.9 mph - N/A   Clear
1:55 PM 42.8 °F 39.3 °F 26.6 °F 53% 30.24 in 10.0 mi NNE 5.8 mph - N/A   Clear
2:15 PM 44.6 °F 40.2 °F 26.6 °F 49% 30.21 in 10.0 mi ENE 8.1 mph - N/A   Clear
2:35 PM 42.8 °F 38.6 °F 28.4 °F 57% 30.23 in 10.0 mi NE 6.9 mph - N/A   Clear
2:55 PM 44.6 °F 41.4 °F 28.4 °F 53% 30.22 in 10.0 mi ENE 5.8 mph - N/A   Clear
3:15 PM 44.6 °F 42.2 °F 28.4 °F 53% 30.23 in 10.0 mi NNE 4.6 mph - N/A   Clear
3:35 PM 44.6 °F 40.7 °F 28.4 °F 53% 30.22 in 10.0 mi NNE 6.9 mph - N/A   Clear
3:55 PM 44.6 °F 40.2 °F 28.4 °F 53% 30.22 in 10.0 mi NE 8.1 mph - N/A   Clear
4:15 PM 44.6 °F 40.2 °F 28.4 °F 53% 30.21 in 10.0 mi NE 8.1 mph - N/A   Clear
4:35 PM 44.6 °F 40.2 °F 28.4 °F 53% 30.21 in 10.0 mi NE 8.1 mph - N/A   Clear
4:55 PM 42.8 °F 40.1 °F 28.4 °F 57% 30.20 in 10.0 mi NNE 4.6 mph - N/A   Clear
5:15 PM 42.8 °F 38.6 °F 28.4 °F 57% 30.19 in 10.0 mi NE 6.9 mph - N/A   Clear
5:35 PM 42.8 °F 40.1 °F 30.2 °F 61% 30.20 in 10.0 mi ENE 4.6 mph - N/A   Clear
5:55 PM 42.8 °F 41.1 °F 30.2 °F 61% 30.20 in 10.0 mi ESE 3.5 mph - N/A   Clear
6:15 PM 41.0 °F - 32.0 °F 70% 30.20 in 10.0 mi Calm Calm - N/A   Clear
6:35 PM 41.0 °F - 32.0 °F 70% 30.19 in 10.0 mi Calm Calm - N/A   Clear
6:55 PM 39.2 °F 37.0 °F 32.0 °F 75% 30.19 in 10.0 mi NE 3.5 mph - N/A   Mostly Cloudy
7:15 PM 39.2 °F 37.0 °F 33.8 °F 81% 30.19 in 10.0 mi East 3.5 mph - N/A   Mostly Cloudy
7:35 PM 39.2 °F 35.0 °F 32.0 °F 75% 30.21 in 10.0 mi NNW 5.8 mph - N/A   Clear
7:55 PM 39.2 °F 35.9 °F 32.0 °F 75% 30.22 in 10.0 mi North 4.6 mph - N/A   Scattered Clouds
8:15 PM 39.2 °F 37.0 °F 32.0 °F 75% 30.22 in 10.0 mi NNE 3.5 mph - N/A   Overcast
8:35 PM 39.2 °F 37.0 °F 32.0 °F 75% 30.21 in 10.0 mi ENE 3.5 mph - N/A   Overcast
8:55 PM 39.2 °F 35.0 °F 32.0 °F 75% 30.19 in 10.0 mi East 5.8 mph - N/A   Overcast
9:15 PM 39.2 °F 37.0 °F 32.0 °F 75% 30.21 in 10.0 mi SE 3.5 mph - N/A   Overcast
9:35 PM 37.4 °F 33.8 °F 32.0 °F 81% 30.20 in 10.0 mi SSE 4.6 mph - N/A   Scattered Clouds
9:55 PM 37.4 °F 34.9 °F 32.0 °F 81% 30.19 in 10.0 mi East 3.5 mph - N/A   Clear
10:15 PM 37.4 °F - 32.0 °F 81% 30.21 in 10.0 mi Calm Calm - N/A   Clear
10:35 PM 35.6 °F 31.7 °F 32.0 °F 87% 30.19 in 10.0 mi North 4.6 mph - N/A   Clear
10:55 PM 35.6 °F - 32.0 °F 87% 30.21 in 10.0 mi Calm Calm - N/A   Clear
11:15 PM 33.8 °F - 32.0 °F 93% 30.20 in 10.0 mi Calm Calm - N/A   Scattered Clouds
11:35 PM 33.8 °F 30.8 °F 32.0 °F 93% 30.19 in 10.0 mi NNE 3.5 mph - N/A   Scattered Clouds
11:55 PM 33.8 °F - 33.8 °F 100% 30.20 in 10.0 mi Calm Calm - N/A   Mostly Cloudy